Hourly Data Report for May 03, 2012

All times are specified in Local Standard Time (LST). Add 1 hour to adjust for Daylight Saving Time where and when it is observed.

ST. JOHN'S INTL A
NEWFOUNDLAND

47°37'07.000" N
52°45'09.000" W
140.50 m
8403505
71801
YYT

Download Data

Hourly Data (May 2012)
Hourly Data Report for May 3, 2012
Temp Definition
°C
Dew Point Temp Definition
°C
Rel Hum Definition
%
Wind Dir Definition
10's deg

Wind Spd Definition
km/h
Visibility Definition
km
Stn Press Definition
kPa
Hmdx Definition


Wind Chill Definition


Weather Definition


TIME
00:30 Legend Double Dagger 0.9 0.9 100 4 29 0.6 99.02     Fog
01:30 Legend Double Dagger 0.2 0.2 100 4 32 1.6 99.03     Drizzle,Fog
02:30 Legend Double Dagger -0.4 -0.4 100 5 35 1.2 99.04   -7 Freezing Drizzle,Fog
03:30 Legend Double Dagger -0.5 -0.5 100 4 38 1.2 99.04   -8 Freezing Drizzle,Fog
04:30 Legend Double Dagger -0.4 -0.4 100 5 36 4.8 99.07   -8 Freezing Drizzle,Fog
05:30 Legend Double Dagger -0.3 -0.3 100 5 44 4.8 99.09   -8 Freezing Drizzle,Fog
06:30 Legend Double Dagger -0.2 -0.2 100 5 39 0.4 99.17   -8 Freezing Drizzle,Freezing Fog
07:30 Legend Double Dagger 0.0 0.0 100 5 38 0.4 99.23   -7 Drizzle,Fog
08:30 Legend Double Dagger 0.4 0.4 100 6 42 0.8 99.26     Snow Showers,Fog
09:30 Legend Double Dagger 1.2 1.2 100 7 34 0.4 99.34     Snow Showers,Fog
10:30 Legend Double Dagger 2.2 2.2 100 8 35 10.0 99.43     LegendNANA
11:30 Legend Double Dagger 2.3 2.2 99 8 37 3.2 99.49     Rain,Fog
12:30 Legend Double Dagger 2.5 2.2 98 9 28 10.0 99.54     LegendNANA
13:30 Legend Double Dagger 1.9 1.5 97 8 33 10.0 99.58     LegendNANA
14:30 Legend Double Dagger 2.4 1.7 95 9 29 10.0 99.59     Cloudy
15:30 Legend Double Dagger 1.3 0.9 97 8 36 4.8 99.64     Drizzle,Fog
16:30 Legend Double Dagger 1.1 1.0 99 9 26 10.0 99.69     Snow Showers
17:30 Legend Double Dagger 0.9 0.8 99 8 26 10.0 99.76     Cloudy
18:30 Legend Double Dagger 0.5 0.5 100 6 23 0.8 99.82     Fog
19:30 Legend Double Dagger 0.9 0.9 100 8 26 8.1 99.88     Rain Showers,Fog
20:30 Legend Double Dagger 1.0 1.0 100 8 18 8.1 99.94     Rain Showers,Fog
21:30 Legend Double Dagger 0.7 0.6 99 6 16 8.1 99.96     Fog
22:30 Legend Double Dagger 0.7 0.7 100 4 21 3.2 99.94     Fog
23:30 Legend Double Dagger 0.7 0.7 100 5 21 10.0 99.92     Cloudy

Notes on Data Quality.

Legend

  • E = Estimated
  • M = Missing
  • NA = Not Available
  • ‡ = Partner data that is not subject to review by the National Climate Archives
Date modified: